Time,TemperatureF,DewpointF,PressureIn,WindDirection,WindDirectionDegrees,WindSpeedMPH,WindSpeedGustMPH,Humidity,HourlyPrecipIn,Conditions,Clouds,dailyrainin,SolarRadiationWatts/m^2,SoftwareType,DateUTC
2013-02-15 00:00:00,63.9,56.5,25.96,SE,140,3.0,4.0,77,0.00,,,0.00,0,Wunderground v.1.15,2013-02-15 06:00:00,
2013-02-15 00:10:00,63.8,56.4,25.96,SSE,150,4.0,4.0,77,0.00,,,0.00,0,Wunderground v.1.15,2013-02-15 06:10:00,
2013-02-15 00:20:00,63.6,56.6,25.95,SSE,153,4.0,4.0,78,0.00,,,0.00,0,Wunderground v.1.15,2013-02-15 06:20:00,
2013-02-15 00:30:00,63.3,56.7,25.95,SSE,154,2.0,6.0,79,0.00,,,0.00,0,Wunderground v.1.15,2013-02-15 06:30:00,
2013-02-15 00:40:00,63.1,56.5,25.95,SSE,153,3.0,3.0,79,0.00,,,0.00,0,Wunderground v.1.15,2013-02-15 06:40:00,
2013-02-15 00:50:00,63.0,56.4,25.94,ESE,120,2.0,2.0,79,0.00,,,0.00,0,Wunderground v.1.15,2013-02-15 06:50:00,
2013-02-15 00:55:00,63.0,56.4,25.94,SSE,161,2.0,5.0,79,0.00,,,0.00,0,Wunderground v.1.15,2013-02-15 06:55:00,
2013-02-15 01:05:00,63.0,56.4,25.94,SE,138,3.0,5.0,79,0.00,,,0.00,0,Wunderground v.1.15,2013-02-15 07:05:00,
2013-02-15 01:15:00,62.8,56.2,25.93,ESE,102,3.0,4.0,79,0.00,,,0.00,0,Wunderground v.1.15,2013-02-15 07:15:00,
2013-02-15 01:25:00,62.6,55.6,25.93,SE,129,2.0,3.0,78,0.00,,,0.00,0,Wunderground v.1.15,2013-02-15 07:25:00,
2013-02-15 01:35:00,62.5,55.9,25.93,ESE,112,1.0,2.0,79,0.00,,,0.00,0,Wunderground v.1.15,2013-02-15 07:35:00,
2013-02-15 01:40:00,62.5,55.9,25.92,SE,138,2.0,2.0,79,0.00,,,0.00,0,Wunderground v.1.15,2013-02-15 07:40:00,
2013-02-15 01:50:00,62.5,55.5,25.93,SE,136,3.0,3.0,78,0.00,,,0.00,0,Wunderground v.1.15,2013-02-15 07:50:00,
2013-02-15 02:00:00,62.5,55.2,25.93,East,81,1.0,1.0,77,0.00,,,0.00,0,Wunderground v.1.15,2013-02-15 08:00:00,
2013-02-15 02:10:00,62.0,54.7,25.93,ENE,66,1.0,1.0,77,0.00,,,0.00,0,Wunderground v.1.15,2013-02-15 08:10:00,
2013-02-15 02:20:00,61.9,53.5,25.92,ESE,117,2.0,2.0,74,0.00,,,0.00,0,Wunderground v.1.15,2013-02-15 08:20:00,
2013-02-15 02:30:00,62.0,52.9,25.92,SE,144,2.0,2.0,72,0.00,,,0.00,0,Wunderground v.1.15,2013-02-15 08:30:00,
2013-02-15 02:40:00,62.0,53.6,25.92,East,91,1.0,1.0,74,0.00,,,0.00,0,Wunderground v.1.15,2013-02-15 08:40:00,
2013-02-15 02:50:00,61.5,53.9,25.92,East,91,0.0,0.0,76,0.00,,,0.00,0,Wunderground v.1.15,2013-02-15 08:50:00,
2013-02-15 02:55:00,61.4,53.8,25.92,East,91,0.0,0.0,76,0.00,,,0.00,0,Wunderground v.1.15,2013-02-15 08:55:00,
2013-02-15 03:05:00,60.9,53.3,25.92,East,91,0.0,0.0,76,0.00,,,0.00,0,Wunderground v.1.15,2013-02-15 09:05:00,
2013-02-15 03:15:00,60.8,53.5,25.92,East,92,0.0,0.0,77,0.00,,,0.00,0,Wunderground v.1.15,2013-02-15 09:15:00,
2013-02-15 03:25:00,60.6,53.0,25.92,SE,146,2.0,4.0,76,0.00,,,0.00,0,Wunderground v.1.15,2013-02-15 09:25:00,
2013-02-15 03:30:00,60.8,52.8,25.92,SE,126,2.0,2.0,75,0.00,,,0.00,0,Wunderground v.1.15,2013-02-15 09:30:00,
2013-02-15 03:40:00,60.9,52.9,25.92,SE,126,0.0,0.0,75,0.00,,,0.00,0,Wunderground v.1.15,2013-02-15 09:40:00,
2013-02-15 03:50:00,60.8,52.8,25.92,SE,126,0.0,0.0,75,0.00,,,0.00,0,Wunderground v.1.15,2013-02-15 09:50:00,
2013-02-15 04:00:00,60.4,52.8,25.92,SE,126,0.0,0.0,76,0.00,,,0.00,0,Wunderground v.1.15,2013-02-15 10:00:00,
2013-02-15 04:10:00,60.3,52.7,25.92,SE,126,0.0,1.0,76,0.00,,,0.00,0,Wunderground v.1.15,2013-02-15 10:10:00,
2013-02-15 04:15:00,60.3,52.3,25.92,SE,127,1.0,2.0,75,0.00,,,0.00,0,Wunderground v.1.15,2013-02-15 10:15:00,
2013-02-15 04:25:00,60.8,51.7,25.92,SE,128,1.0,2.0,72,0.00,,,0.00,0,Wunderground v.1.15,2013-02-15 10:25:00,
2013-02-15 04:35:00,61.2,51.7,25.93,SSE,149,1.0,2.0,71,0.00,,,0.00,0,Wunderground v.1.15,2013-02-15 10:35:00,
2013-02-15 04:45:00,61.4,51.1,25.93,SSE,153,2.0,2.0,69,0.00,,,0.00,0,Wunderground v.1.15,2013-02-15 10:45:00,
2013-02-15 04:55:00,61.5,51.2,25.93,SE,142,3.0,3.0,69,0.00,,,0.00,0,Wunderground v.1.15,2013-02-15 10:55:00,
2013-02-15 05:05:00,61.5,51.2,25.93,SSE,159,3.0,3.0,69,0.00,,,0.00,0,Wunderground v.1.15,2013-02-15 11:05:00,
2013-02-15 05:10:00,61.5,51.6,25.93,SSE,158,3.0,4.0,70,0.00,,,0.00,0,Wunderground v.1.15,2013-02-15 11:10:00,
2013-02-15 05:15:00,61.4,51.5,25.93,SE,132,3.0,4.0,70,0.00,,,0.00,0,Wunderground v.1.15,2013-02-15 11:15:00,
2013-02-15 05:25:00,61.2,50.9,25.94,SE,142,3.0,4.0,69,0.00,,,0.00,0,Wunderground v.1.15,2013-02-15 11:25:00,
2013-02-15 05:30:00,61.2,50.9,25.94,SSE,161,3.0,3.0,69,0.00,,,0.00,0,Wunderground v.1.15,2013-02-15 11:30:00,
2013-02-15 05:40:00,61.4,51.1,25.94,South,180,3.0,3.0,69,0.00,,,0.00,0,Wunderground v.1.15,2013-02-15 11:40:00,
2013-02-15 05:50:00,61.5,51.2,25.95,SSE,154,4.0,4.0,69,0.00,,,0.00,0,Wunderground v.1.15,2013-02-15 11:50:00,
2013-02-15 06:00:00,61.5,50.8,25.95,SSE,153,3.0,6.0,68,0.00,,,0.00,5,Wunderground v.1.15,2013-02-15 12:00:00,
2013-02-15 06:10:00,61.5,50.8,25.95,SSE,168,2.0,2.0,68,0.00,,,0.00,12,Wunderground v.1.15,2013-02-15 12:10:00,
2013-02-15 06:20:00,61.5,51.2,25.95,SSE,147,1.0,1.0,69,0.00,,,0.00,18,Wunderground v.1.15,2013-02-15 12:20:00,
2013-02-15 06:25:00,61.5,50.8,25.95,SSE,161,2.0,2.0,68,0.00,,,0.00,21,Wunderground v.1.15,2013-02-15 12:25:00,
2013-02-15 06:30:00,61.7,51.0,25.95,SSE,161,2.0,2.0,68,0.00,,,0.00,23,Wunderground v.1.15,2013-02-15 12:30:00,
2013-02-15 06:40:00,62.0,50.9,25.96,SE,138,2.0,2.0,67,0.00,,,0.00,26,Wunderground v.1.15,2013-02-15 12:40:00,
2013-02-15 06:45:00,62.3,50.8,25.96,ESE,110,1.0,2.0,66,0.00,,,0.00,32,Wunderground v.1.15,2013-02-15 12:45:00,
2013-02-15 06:50:00,62.8,51.3,25.96,ESE,110,1.0,1.0,66,0.00,,,0.00,33,Wunderground v.1.15,2013-02-15 12:50:00,
2013-02-15 07:00:00,63.4,51.0,25.97,East,95,1.0,2.0,64,0.00,,,0.00,33,Wunderground v.1.15,2013-02-15 13:00:00,
2013-02-15 07:10:00,64.6,50.8,25.97,SE,146,1.0,1.0,61,0.00,,,0.00,221,Wunderground v.1.15,2013-02-15 13:10:00,
2013-02-15 07:20:00,65.9,51.2,25.97,East,82,1.0,1.0,59,0.00,,,0.00,262,Wunderground v.1.15,2013-02-15 13:20:00,
2013-02-15 07:30:00,67.2,51.0,25.97,NE,56,1.0,1.0,56,0.00,,,0.00,301,Wunderground v.1.15,2013-02-15 13:30:00,
2013-02-15 07:40:00,68.2,50.4,25.97,ENE,61,1.0,1.0,53,0.00,,,0.00,336,Wunderground v.1.15,2013-02-15 13:40:00,
2013-02-15 07:50:00,69.3,50.9,25.98,SE,128,1.0,1.0,52,0.00,,,0.00,374,Wunderground v.1.15,2013-02-15 13:50:00,
2013-02-15 07:55:00,69.7,51.3,25.98,East,84,2.0,2.0,52,0.00,,,0.00,392,Wunderground v.1.15,2013-02-15 13:55:00,
2013-02-15 08:00:00,69.8,50.9,25.98,NE,41,2.0,3.0,51,0.00,,,0.00,411,Wunderground v.1.15,2013-02-15 14:00:00,
2013-02-15 08:10:00,70.2,49.6,25.98,NE,42,2.0,2.0,48,0.00,,,0.00,446,Wunderground v.1.15,2013-02-15 14:10:00,
2013-02-15 08:15:00,70.5,50.4,25.98,NE,42,1.0,2.0,49,0.00,,,0.00,462,Wunderground v.1.15,2013-02-15 14:15:00,
2013-02-15 08:25:00,71.4,48.9,25.98,NNW,329,2.0,3.0,45,0.00,,,0.00,496,Wunderground v.1.15,2013-02-15 14:25:00,
2013-02-15 08:35:00,71.9,48.2,25.98,West,277,2.0,2.0,43,0.00,,,0.00,533,Wunderground v.1.15,2013-02-15 14:35:00,
2013-02-15 08:40:00,72.4,48.0,25.98,NNE,19,1.0,1.0,42,0.00,,,0.00,545,Wunderground v.1.15,2013-02-15 14:40:00,
2013-02-15 08:45:00,73.1,51.1,25.98,ESE,103,1.0,2.0,46,0.00,,,0.00,563,Wunderground v.1.15,2013-02-15 14:45:00,
2013-02-15 08:55:00,73.8,52.3,25.98,SE,139,1.0,1.0,47,0.00,,,0.00,591,Wunderground v.1.15,2013-02-15 14:55:00,
2013-02-15 09:00:00,74.1,52.0,25.98,NNW,339,1.0,4.0,46,0.00,,,0.00,606,Wunderground v.1.15,2013-02-15 15:00:00,
2013-02-15 09:05:00,74.3,45.6,25.98,WNW,282,2.0,4.0,36,0.00,,,0.00,626,Wunderground v.1.15,2013-02-15 15:05:00,
2013-02-15 09:15:00,74.1,42.3,25.98,NW,311,3.0,4.0,32,0.00,,,0.00,657,Wunderground v.1.15,2013-02-15 15:15:00,
2013-02-15 09:25:00,74.3,42.5,25.98,NNW,329,4.0,4.0,32,0.00,,,0.00,686,Wunderground v.1.15,2013-02-15 15:25:00,
2013-02-15 09:30:00,75.0,42.3,25.98,ESE,107,3.0,3.0,31,0.00,,,0.00,700,Wunderground v.1.15,2013-02-15 15:30:00,
2013-02-15 09:40:00,74.8,41.3,25.98,NNW,333,4.0,9.0,30,0.00,,,0.00,722,Wunderground v.1.15,2013-02-15 15:40:00,
2013-02-15 09:50:00,74.6,42.0,25.98,SSW,193,4.0,5.0,31,0.00,,,0.00,742,Wunderground v.1.15,2013-02-15 15:50:00,
2013-02-15 09:55:00,74.8,41.3,25.98,ENE,64,4.0,5.0,30,0.00,,,0.00,756,Wunderground v.1.15,2013-02-15 15:55:00,
2013-02-15 10:05:00,75.9,42.2,25.98,SE,126,4.0,6.0,30,0.00,,,0.00,777,Wunderground v.1.15,2013-02-15 16:05:00,
2013-02-15 10:10:00,76.0,43.2,25.97,WNW,300,4.0,4.0,31,0.00,,,0.00,786,Wunderground v.1.15,2013-02-15 16:10:00,
2013-02-15 10:20:00,76.0,41.4,25.97,WNW,303,4.0,6.0,29,0.00,,,0.00,807,Wunderground v.1.15,2013-02-15 16:20:00,
2013-02-15 10:30:00,76.4,44.4,25.96,NNE,29,4.0,4.0,32,0.00,,,0.00,826,Wunderground v.1.15,2013-02-15 16:30:00,
2013-02-15 10:40:00,77.1,45.8,25.96,NE,45,4.0,4.0,33,0.00,,,0.00,840,Wunderground v.1.15,2013-02-15 16:40:00,
2013-02-15 10:45:00,78.2,47.5,25.95,NW,326,3.0,6.0,34,0.00,,,0.00,849,Wunderground v.1.15,2013-02-15 16:45:00,
2013-02-15 10:55:00,78.0,47.4,25.95,NNE,20,4.0,8.0,34,0.00,,,0.00,856,Wunderground v.1.15,2013-02-15 16:55:00,
2013-02-15 11:05:00,77.6,45.4,25.94,North,360,4.0,6.0,32,0.00,,,0.00,867,Wunderground v.1.15,2013-02-15 17:05:00,
2013-02-15 11:10:00,77.8,47.9,25.94,North,5,4.0,4.0,35,0.00,,,0.00,872,Wunderground v.1.15,2013-02-15 17:10:00,
2013-02-15 11:20:00,78.7,48.0,25.94,NNW,341,4.0,4.0,34,0.00,,,0.00,877,Wunderground v.1.15,2013-02-15 17:20:00,
2013-02-15 11:30:00,77.8,48.7,25.93,ESE,116,5.0,7.0,36,0.00,,,0.00,884,Wunderground v.1.15,2013-02-15 17:30:00,
2013-02-15 11:40:00,78.5,49.3,25.93,ESE,120,4.0,7.0,36,0.00,,,0.00,898,Wunderground v.1.15,2013-02-15 17:40:00,
2013-02-15 11:45:00,78.9,49.7,25.93,East,90,4.0,7.0,36,0.00,,,0.00,905,Wunderground v.1.15,2013-02-15 17:45:00,
2013-02-15 11:55:00,78.7,48.0,25.92,NE,42,4.0,4.0,34,0.00,,,0.00,923,Wunderground v.1.15,2013-02-15 17:55:00,
2013-02-15 12:00:00,78.4,48.5,25.92,North,355,5.0,11.0,35,0.00,,,0.00,919,Wunderground v.1.15,2013-02-15 18:00:00,
2013-02-15 12:10:00,77.5,49.2,25.92,SE,134,6.0,7.0,37,0.00,,,0.00,939,Wunderground v.1.15,2013-02-15 18:10:00,
2013-02-15 12:15:00,77.6,50.0,25.92,North,5,5.0,7.0,38,0.00,,,0.00,972,Wunderground v.1.15,2013-02-15 18:15:00,
2013-02-15 12:20:00,77.6,50.7,25.92,ESE,103,5.0,7.0,39,0.00,,,0.00,1062,Wunderground v.1.15,2013-02-15 18:20:00,
2013-02-15 12:25:00,77.6,52.0,25.91,East,94,5.0,7.0,41,0.00,,,0.00,1062,Wunderground v.1.15,2013-02-15 18:25:00,
2013-02-15 12:35:00,78.9,51.8,25.91,ENE,63,4.0,5.0,39,0.00,,,0.00,1046,Wunderground v.1.15,2013-02-15 18:35:00,
2013-02-15 12:40:00,78.7,53.7,25.91,ENE,65,5.0,5.0,42,0.00,,,0.00,376,Wunderground v.1.15,2013-02-15 18:40:00,
2013-02-15 12:45:00,77.5,53.2,25.91,ESE,115,4.0,5.0,43,0.00,,,0.00,369,Wunderground v.1.15,2013-02-15 18:45:00,
2013-02-15 12:55:00,75.9,53.6,25.91,WNW,297,6.0,6.0,46,0.00,,,0.00,425,Wunderground v.1.15,2013-02-15 18:55:00,
2013-02-15 13:00:00,75.7,55.2,25.90,SSE,155,5.0,5.0,49,0.00,,,0.00,381,Wunderground v.1.15,2013-02-15 19:00:00,
2013-02-15 13:05:00,75.3,54.8,25.90,SE,137,5.0,5.0,49,0.00,,,0.00,330,Wunderground v.1.15,2013-02-15 19:05:00,
2013-02-15 13:15:00,74.8,56.5,25.91,NNE,17,5.0,10.0,53,0.00,,,0.00,332,Wunderground v.1.15,2013-02-15 19:15:00,
2013-02-15 13:25:00,73.8,57.1,25.90,West,271,7.0,7.0,56,0.00,,,0.00,346,Wunderground v.1.15,2013-02-15 19:25:00,
2013-02-15 13:35:00,73.6,57.9,25.90,WSW,242,5.0,6.0,58,0.00,,,0.00,963,Wunderground v.1.15,2013-02-15 19:35:00,
2013-02-15 13:40:00,74.1,57.9,25.90,ESE,117,6.0,12.0,57,0.00,,,0.00,768,Wunderground v.1.15,2013-02-15 19:40:00,
2013-02-15 13:50:00,74.3,59.0,25.89,SE,131,6.0,15.0,59,0.00,,,0.00,742,Wunderground v.1.15,2013-02-15 19:50:00,
2013-02-15 13:55:00,74.6,58.8,25.89,NE,34,5.0,15.0,58,0.00,,,0.00,738,Wunderground v.1.15,2013-02-15 19:55:00,
2013-02-15 14:05:00,75.0,59.2,25.88,WNW,301,6.0,6.0,58,0.00,,,0.00,724,Wunderground v.1.15,2013-02-15 20:05:00,
2013-02-15 14:10:00,74.8,59.0,25.88,SSE,167,6.0,6.0,58,0.00,,,0.00,703,Wunderground v.1.15,2013-02-15 20:10:00,
2013-02-15 14:15:00,74.1,59.3,25.88,West,261,6.0,6.0,60,0.00,,,0.00,686,Wunderground v.1.15,2013-02-15 20:15:00,
2013-02-15 14:25:00,74.1,58.9,25.88,North,360,6.0,13.0,59,0.00,,,0.00,643,Wunderground v.1.15,2013-02-15 20:25:00,
2013-02-15 14:30:00,73.9,58.7,25.87,North,355,6.0,6.0,59,0.00,,,0.00,624,Wunderground v.1.15,2013-02-15 20:30:00,
2013-02-15 14:40:00,74.3,59.0,25.87,NNE,30,5.0,5.0,59,0.00,,,0.00,610,Wunderground v.1.15,2013-02-15 20:40:00,
2013-02-15 14:50:00,75.0,58.7,25.87,SE,142,4.0,5.0,57,0.00,,,0.00,570,Wunderground v.1.15,2013-02-15 20:50:00,
2013-02-15 15:00:00,75.0,58.7,25.87,ENE,63,5.0,5.0,57,0.00,,,0.00,466,Wunderground v.1.15,2013-02-15 21:00:00,
2013-02-15 15:05:00,74.6,58.8,25.87,NNE,19,6.0,6.0,58,0.00,,,0.00,617,Wunderground v.1.15,2013-02-15 21:05:00,
2013-02-15 15:15:00,73.1,58.8,25.88,SE,144,6.0,6.0,61,0.00,,,0.00,251,Wunderground v.1.15,2013-02-15 21:15:00,
2013-02-15 15:25:00,72.4,59.1,25.88,ESE,102,5.0,5.0,63,0.00,,,0.00,209,Wunderground v.1.15,2013-02-15 21:25:00,
2013-02-15 15:35:00,71.9,59.1,25.88,NE,52,5.0,6.0,64,0.00,,,0.00,475,Wunderground v.1.15,2013-02-15 21:35:00,
2013-02-15 15:45:00,71.9,59.1,25.88,NNE,28,6.0,6.0,64,0.00,,,0.00,394,Wunderground v.1.15,2013-02-15 21:45:00,
2013-02-15 15:55:00,71.4,58.1,25.88,NE,51,5.0,6.0,63,0.00,,,0.00,397,Wunderground v.1.15,2013-02-15 21:55:00,
2013-02-15 16:05:00,71.2,58.4,25.88,NW,306,5.0,5.0,64,0.00,,,0.00,320,Wunderground v.1.15,2013-02-15 22:05:00,
2013-02-15 16:15:00,71.0,58.2,25.89,NNE,17,5.0,10.0,64,0.00,,,0.00,281,Wunderground v.1.15,2013-02-15 22:15:00,
2013-02-15 16:25:00,70.7,58.8,25.89,WNW,302,4.0,6.0,66,0.00,,,0.00,148,Wunderground v.1.15,2013-02-15 22:25:00,
2013-02-15 16:30:00,70.3,58.8,25.89,East,80,4.0,4.0,67,0.00,,,0.00,97,Wunderground v.1.15,2013-02-15 22:30:00,
2013-02-15 16:40:00,70.0,59.0,25.89,NW,314,3.0,3.0,68,0.00,,,0.00,53,Wunderground v.1.15,2013-02-15 22:40:00,
2013-02-15 16:45:00,69.8,58.8,25.89,NW,315,3.0,3.0,68,0.00,,,0.00,53,Wunderground v.1.15,2013-02-15 22:45:00,
2013-02-15 16:55:00,69.3,58.7,25.90,WSW,247,3.0,3.0,69,0.00,,,0.00,69,Wunderground v.1.15,2013-02-15 22:55:00,
2013-02-15 17:00:00,69.3,58.7,25.90,NE,44,3.0,4.0,69,0.00,,,0.00,72,Wunderground v.1.15,2013-02-15 23:00:00,
2013-02-15 17:05:00,69.2,59.0,25.90,NNW,329,4.0,4.0,70,0.00,,,0.00,44,Wunderground v.1.15,2013-02-15 23:05:00,
2013-02-15 17:15:00,69.0,59.2,25.89,ENE,63,2.0,3.0,71,0.00,,,0.00,26,Wunderground v.1.15,2013-02-15 23:15:00,
2013-02-15 17:25:00,69.0,59.2,25.90,East,90,2.0,2.0,71,0.00,,,0.00,21,Wunderground v.1.15,2013-02-15 23:25:00,
2013-02-15 17:35:00,69.0,59.6,25.90,NE,44,2.0,4.0,72,0.00,,,0.00,11,Wunderground v.1.15,2013-02-15 23:35:00,
2013-02-15 17:45:00,68.7,59.7,25.90,NW,310,3.0,3.0,73,0.00,,,0.00,0,Wunderground v.1.15,2013-02-15 23:45:00,
2013-02-15 17:55:00,68.5,59.9,25.90,NE,43,2.0,2.0,74,0.00,,,0.00,0,Wunderground v.1.15,2013-02-15 23:55:00,
2013-02-15 18:00:00,68.5,59.5,25.90,ENE,74,1.0,1.0,73,0.00,,,0.00,0,Wunderground v.1.15,2013-02-16 00:00:00,
2013-02-15 18:10:00,68.5,59.9,25.91,ENE,57,2.0,3.0,74,0.00,,,0.00,0,Wunderground v.1.15,2013-02-16 00:10:00,
2013-02-15 18:20:00,68.0,60.2,25.91,NNW,348,2.0,2.0,76,0.00,,,0.00,0,Wunderground v.1.15,2013-02-16 00:20:00,
2013-02-15 18:30:00,67.8,60.0,25.92,East,96,3.0,4.0,76,0.00,,,0.00,0,Wunderground v.1.15,2013-02-16 00:30:00,
2013-02-15 18:35:00,67.8,60.0,25.92,ESE,114,3.0,4.0,76,0.00,,,0.00,0,Wunderground v.1.15,2013-02-16 00:35:00,
2013-02-15 18:45:00,67.8,60.3,25.92,SSW,195,3.0,5.0,77,0.00,,,0.00,0,Wunderground v.1.15,2013-02-16 00:45:00,
2013-02-15 18:50:00,67.5,60.4,25.92,NE,40,3.0,3.0,78,0.00,,,0.00,0,Wunderground v.1.15,2013-02-16 00:50:00,
2013-02-15 18:55:00,67.5,60.4,25.93,NW,307,3.0,4.0,78,0.00,,,0.00,0,Wunderground v.1.15,2013-02-16 00:55:00,
2013-02-15 19:05:00,67.2,60.1,25.93,ESE,102,3.0,6.0,78,0.00,,,0.00,0,Wunderground v.1.15,2013-02-16 01:05:00,
2013-02-15 19:15:00,67.0,59.9,25.93,NW,314,2.0,4.0,78,0.00,,,0.00,0,Wunderground v.1.15,2013-02-16 01:15:00,
2013-02-15 19:20:00,67.0,59.9,25.93,West,275,2.0,2.0,78,0.00,,,0.00,0,Wunderground v.1.15,2013-02-16 01:20:00,
2013-02-15 19:30:00,66.5,60.1,25.94,SE,131,3.0,3.0,80,0.00,,,0.00,0,Wunderground v.1.15,2013-02-16 01:30:00,
2013-02-15 19:35:00,66.2,59.8,25.94,North,355,3.0,3.0,80,0.00,,,0.00,0,Wunderground v.1.15,2013-02-16 01:35:00,
2013-02-15 19:45:00,65.5,58.1,25.94,NE,41,5.0,5.0,77,0.00,,,0.00,0,Wunderground v.1.15,2013-02-16 01:45:00,
2013-02-15 19:55:00,65.5,56.6,25.95,NNE,12,3.0,4.0,73,0.00,,,0.00,0,Wunderground v.1.15,2013-02-16 01:55:00,
2013-02-15 20:05:00,65.7,56.0,25.95,SE,125,3.0,4.0,71,0.00,,,0.00,0,Wunderground v.1.15,2013-02-16 02:05:00,
2013-02-15 20:15:00,65.7,56.0,25.95,NE,35,4.0,4.0,71,0.00,,,0.00,0,Wunderground v.1.15,2013-02-16 02:15:00,
2013-02-15 20:20:00,65.5,56.2,25.95,SE,134,4.0,7.0,72,0.00,,,0.00,0,Wunderground v.1.15,2013-02-16 02:20:00,
2013-02-15 20:30:00,65.5,55.5,25.95,NE,47,4.0,4.0,70,0.00,,,0.00,0,Wunderground v.1.15,2013-02-16 02:30:00,
2013-02-15 20:40:00,65.9,55.0,25.95,NW,325,3.0,6.0,68,0.00,,,0.00,0,Wunderground v.1.15,2013-02-16 02:40:00,
2013-02-15 20:45:00,65.9,54.6,25.96,ESE,113,3.0,6.0,67,0.00,,,0.00,0,Wunderground v.1.15,2013-02-16 02:45:00,
2013-02-15 20:55:00,66.0,55.5,25.95,NE,34,3.0,3.0,69,0.00,,,0.00,0,Wunderground v.1.15,2013-02-16 02:55:00,
2013-02-15 21:05:00,66.3,55.8,25.96,East,88,4.0,6.0,69,0.00,,,0.00,0,Wunderground v.1.15,2013-02-16 03:05:00,
2013-02-15 21:15:00,66.3,56.6,25.96,South,169,4.0,5.0,71,0.00,,,0.00,0,Wunderground v.1.15,2013-02-16 03:15:00,
2013-02-15 21:25:00,66.8,57.9,25.96,South,176,0.0,2.0,73,0.00,,,0.00,0,Wunderground v.1.15,2013-02-16 03:25:00,
2013-02-15 21:30:00,66.8,58.6,25.96,ENE,65,0.0,0.0,75,0.00,,,0.00,0,Wunderground v.1.15,2013-02-16 03:30:00,
2013-02-15 21:40:00,66.8,59.0,25.96,ENE,65,0.0,1.0,76,0.00,,,0.00,0,Wunderground v.1.15,2013-02-16 03:40:00,
2013-02-15 21:45:00,66.5,58.7,25.96,NNW,329,0.0,1.0,76,0.00,,,0.00,0,Wunderground v.1.15,2013-02-16 03:45:00,
2013-02-15 21:55:00,65.5,56.6,25.96,NE,39,1.0,2.0,73,0.00,,,0.00,0,Wunderground v.1.15,2013-02-16 03:55:00,
2013-02-15 22:05:00,66.0,58.2,25.97,SE,129,2.0,2.0,76,0.00,,,0.00,0,Wunderground v.1.15,2013-02-16 04:05:00,
2013-02-15 22:15:00,65.5,57.0,25.97,NNE,30,2.0,4.0,74,0.00,,,0.00,0,Wunderground v.1.15,2013-02-16 04:15:00,
2013-02-15 22:20:00,64.9,56.8,25.97,NE,40,2.0,2.0,75,0.00,,,0.00,0,Wunderground v.1.15,2013-02-16 04:20:00,
2013-02-15 22:30:00,64.1,57.1,25.97,North,5,3.0,3.0,78,0.00,,,0.00,0,Wunderground v.1.15,2013-02-16 04:30:00,
2013-02-15 22:40:00,63.9,56.9,25.96,ESE,105,3.0,3.0,78,0.00,,,0.00,0,Wunderground v.1.15,2013-02-16 04:40:00,
2013-02-15 22:50:00,64.7,57.0,25.96,SSE,155,3.0,4.0,76,0.00,,,0.00,0,Wunderground v.1.15,2013-02-16 04:50:00,
2013-02-15 23:00:00,65.2,56.3,25.96,SSE,149,3.0,3.0,73,0.00,,,0.00,0,Wunderground v.1.15,2013-02-16 05:00:00,
2013-02-15 23:05:00,65.4,56.5,25.96,SSE,160,3.0,5.0,73,0.00,,,0.00,0,Wunderground v.1.15,2013-02-16 05:05:00,
2013-02-15 23:10:00,65.7,56.8,25.96,SSE,148,4.0,5.0,73,0.00,,,0.00,0,Wunderground v.1.15,2013-02-16 05:10:00,
2013-02-15 23:15:00,65.7,56.4,25.96,SSE,156,4.0,5.0,72,0.00,,,0.00,0,Wunderground v.1.15,2013-02-16 05:15:00,
2013-02-15 23:25:00,65.7,56.4,25.95,SE,145,3.0,5.0,72,0.00,,,0.00,0,Wunderground v.1.15,2013-02-16 05:25:00,
2013-02-15 23:35:00,65.7,56.8,25.95,East,101,2.0,6.0,73,0.00,,,0.00,0,Wunderground v.1.15,2013-02-16 05:35:00,
2013-02-15 23:40:00,65.7,56.4,25.95,SSE,153,2.0,2.0,72,0.00,,,0.00,0,Wunderground v.1.15,2013-02-16 05:40:00,
2013-02-15 23:50:00,65.5,56.6,25.94,SE,134,1.0,1.0,73,0.00,,,0.00,0,Wunderground v.1.15,2013-02-16 05:50:00,
2013-02-15 23:55:00,65.5,56.6,25.94,ESE,118,1.0,1.0,73,0.00,,,0.00,0,Wunderground v.1.15,2013-02-16 05:55:00,